Dewpoint
67 72 75 75 74 74 74 74 73 73 71 72 71 70 69 69 70 70 70 68 67 67 68 67 67 68 69 68 67 66 65 66 67 67 66 67 65 64 64 65 66 66 66
68 72 75 75 74 74 75 74 74 74 73 71 70 70 68 69 71 69 68 67 66 66 66 67 67 68 68 67 67 66 67 68 68 67 66 66 67 64 64 65 66 67 66
70 71 71 74 74 75 75 74 74 73 73 71 70 69 67 69 70 69 68 67 65 65 66 66 67 68 68 67 67 67 67 67 66 67 67 63 64 65 66 66 68 65 68
70 71 71 74 74 75 75 74 74 73 71 70 69 68 67 69 71 69 69 67 64 65 64 65 65 67 67 66 66 65 65 64 65 66 66 65 65 67 66 68 69 68 65
71 71 72 74 75 75 74 74 73 72 70 69 68 66 68 69 70 69 68 67 65 65 65 65 65 66 66 66 66 66 66 65 65 65 67 67 67 68 69 69 67 69 68
71 71 72 74 75 75 74 74 72 71 70 68 66 67 71 69 71 70 68 67 65 66 66 66 66 66 66 66 66 66 67 66 64 64 66 67 67 68 68 67 67 67 67
70 71 71 75 75 74 74 74 72 70 69 67 66 68 71 70 71 70 68 67 66 66 66 66 66 66 66 66 64 65 66 64 60 63 65 66 66 66 64 65 65 65 64
70 71 71 73 74 74 74 73 72 71 69 67 67 70 71 72 70 69 68 67 66 65 66 66 65 65 65 65 63 65 66 63 59 59 63 65 66 63 62 63 63 63 63
70 71 72 71 72 73 73 72 72 71 70 69 68 70 71 70 70 69 68 67 66 65 66 66 65 64 64 64 61 65 64 61 58 58 57 61 64 62 62 61 62 62 61
71 71 71 71 70 71 71 71 71 70 70 69 68 68 67 67 69 69 67 68 66 66 66 65 64 63 64 63 61 60 60 59 57 58 58 56 62 64 63 61 61 60 59
69 70 70 70 70 70 70 70 70 69 69 68 67 67 66 65 65 66 66 67 68 67 66 64 63 63 63 62 61 57 54 50 54 54 54 56 61 66 63 61 61 59 58
67 67 68 69 69 69 69 70 69 68 67 66 65 65 64 64 65 65 65 65 67 68 67 64 62 62 58 54 54 52 50 46 47 53 55 61 61 64 63 61 61 59 57
65 66 66 67 67 67 68 68 68 67 67 66 65 64 63 63 64 65 65 65 66 65 66 64 62 60 55 51 48 46 45 45 45 48 57 63 64 66 64 63 61 58 56
65 65 65 66 66 66 67 67 67 67 67 66 65 64 63 62 63 63 63 64 65 65 66 65 63 61 58 51 48 47 47 45 44 47 54 62 65 67 65 62 62 59 57
64 65 65 65 65 65 66 66 66 67 67 66 65 64 63 62 62 61 62 62 63 65 65 65 63 61 60 58 54 49 47 48 45 45 49 60 64 67 66 63 63 60 59
63 64 64 64 64 64 65 65 65 65 66 67 66 65 63 63 62 61 60 60 61 62 63 64 63 62 61 60 60 59 56 51 47 44 45 52 62 66 66 65 63 61 61
63 63 63 64 64 64 64 64 64 64 64 65 66 66 65 63 62 61 61 60 60 61 61 62 63 63 62 61 60 59 58 54 49 45 45 50 55 62 65 65 64 63 61
63 63 63 63 64 64 64 64 64 63 64 64 64 65 65 65 64 63 62 61 61 61 61 61 61 61 61 61 60 59 59 58 56 51 45 47 52 56 61 65 65 64 63
63 63 63 64 64 64 64 64 64 64 63 62 63 62 63 64 64 64 63 63 62 62 61 61 61 61 60 60 60 59 59 58 58 54 51 47 48 54 56 61 63 64 64
61 62 63 64 64 64 63 63 63 63 63 63 63 63 63 63 64 64 64 63 63 62 62 61 61 60 60 59 58 58 59 58 56 55 53 50 47 49 53 57 59 60 62
44 54 62 62 63 64 64 63 63 62 63 64 63 63 63 62 62 63 63 63 63 62 61 61 61 60 60 59 58 58 57 55 55 54 53 51 50 49 50 53 56 58 59
39 44 48 58 58 62 63 63 64 64 64 64 65 64 64 64 65 64 63 62 61 61 61 61 61 60 60 58 59 55 55 54 51 50 49 47 46 45 47 50 52 54 57
41 42 42 43 42 44 49 47 47 48 51 59 62 63 61 59 64 65 65 65 64 62 61 62 61 60 60 58 58 59 53 51 50 50 46 44 43 43 45 48 50 51 52
43 46 45 44 43 43 43 41 41 43 43 43 45 46 45 46 48 54 61 63 64 63 62 62 61 61 60 59 56 55 56 52 52 51 51 46 40 40 42 45 47 49 51
46 46 45 45 45 45 45 44 43 43 44 45 45 45 47 49 53 54 55 56 58 58 59 60 60 60 60 60 58 56 56 53 50 51 51 53 51 50 47 44 44 45 48
46 45 46 45 45 45 45 45 45 45 45 46 46 47 47 49 53 52 52 53 55 57 57 58 58 60 60 60 60 58 55 53 53 49 49 49 50 51 48 47 46 44 45
Lifted_Index
-2 -3 -4 -4 -4 -3 -3 -2 -2 -1 -0 0 1 1 2 2 1 1 2 3 4 4 4 4 3 3 3 3 4 5 5 4 4 4 4 4 4 4 4 3 1 0 0
-3 -4 -4 -4 -4 -3 -3 -3 -2 -1 -1 -0 1 1 2 1 1 2 2 3 4 4 4 4 3 3 3 4 4 4 4 4 4 4 4 4 4 4 4 3 1 0 0
-4 -4 -4 -4 -4 -4 -3 -3 -2 -2 -1 -0 1 2 2 1 1 1 2 4 4 5 4 4 4 4 4 4 4 4 4 4 4 4 4 4 3 3 3 2 1 0 0
-4 -4 -4 -4 -4 -4 -4 -3 -3 -2 -1 0 1 2 2 1 1 1 2 4 5 5 5 5 5 4 4 4 4 4 5 5 5 4 3 3 2 2 2 1 0 0 0
-5 -4 -4 -4 -4 -4 -4 -3 -2 -1 -0 1 2 2 2 1 0 1 2 4 5 5 5 5 5 4 4 4 4 4 4 5 5 4 3 2 1 1 1 1 1 0 0
-5 -4 -4 -5 -5 -5 -4 -3 -2 -1 -0 1 2 2 1 0 0 1 2 4 4 5 5 5 5 4 4 4 4 4 4 5 5 4 3 2 1 1 1 2 2 1 1
-5 -4 -5 -5 -5 -5 -4 -3 -2 -1 0 2 2 1 -0 -0 -0 1 2 3 4 4 4 4 4 4 4 4 5 5 5 6 6 5 3 2 2 2 3 3 3 2 2
-5 -5 -5 -5 -5 -4 -4 -3 -2 -1 0 2 2 0 -0 -0 0 1 2 3 4 4 4 4 4 4 4 5 5 5 5 6 6 6 5 3 3 3 4 4 4 4 4
-5 -5 -5 -4 -4 -4 -4 -3 -2 -1 0 1 1 1 0 0 1 1 2 3 3 4 4 4 4 5 5 5 6 6 6 6 7 7 6 5 4 3 4 4 4 4 4
-4 -5 -5 -4 -4 -4 -3 -3 -2 -1 0 1 1 1 1 1 1 2 2 3 3 3 3 4 5 5 5 6 6 6 6 7 7 7 7 6 4 3 3 4 4 5 5
-4 -4 -4 -4 -4 -3 -3 -2 -1 -0 0 1 2 2 2 2 2 2 3 3 3 3 3 4 5 5 6 7 7 7 7 8 8 8 8 7 4 2 2 3 4 5 5
-3 -3 -3 -3 -3 -3 -2 -2 -1 -0 1 1 2 3 3 3 3 3 3 3 3 2 3 4 5 6 8 8 8 8 8 8 9 9 8 6 4 2 1 3 4 5 5
-2 -2 -2 -2 -2 -2 -2 -2 -1 -0 1 1 2 2 3 4 4 4 4 4 3 3 3 3 4 6 8 9 9 9 9 9 9 9 7 5 3 1 1 2 3 4 5
-2 -2 -2 -2 -2 -2 -2 -1 -1 -0 0 1 1 2 2 3 4 4 4 4 4 3 3 3 4 5 6 7 8 8 8 8 8 8 7 5 2 0 0 1 2 3 4
-3 -3 -2 -2 -2 -2 -1 -1 -1 -1 -0 -0 0 1 2 2 3 4 4 5 4 4 3 3 3 4 5 5 6 6 6 7 7 7 7 5 3 0 -0 0 1 2 3
-3 -3 -2 -2 -2 -2 -1 -1 -0 -0 -0 -0 0 0 1 2 2 3 4 4 4 4 3 3 3 3 3 4 4 4 4 4 5 5 5 4 3 1 0 -0 1 1 2
-3 -3 -3 -2 -2 -1 -1 -1 -0 -0 -0 0 0 0 1 1 2 2 3 3 3 3 3 3 3 3 3 2 2 3 3 3 2 2 2 3 3 2 1 0 0 1 1
-3 -3 -3 -3 -2 -2 -1 -1 -1 -0 -0 0 0 1 1 1 1 2 2 2 2 2 2 2 2 2 2 2 1 1 1 1 1 1 1 1 2 2 2 1 0 0 0
-3 -4 -4 -3 -3 -3 -2 -2 -1 -1 -1 -0 0 0 1 1 1 1 1 1 1 1 1 1 1 1 1 1 1 1 1 1 1 0 0 1 1 1 2 1 1 0 0
-3 -3 -3 -4 -3 -3 -3 -2 -2 -1 -1 -1 -1 -0 0 0 0 0 0 0 0 0 0 0 0 0 0 0 0 1 1 1 1 0 0 0 1 1 1 1 1 1 1
-1 -2 -3 -3 -3 -3 -3 -2 -2 -2 -2 -1 -1 -1 -1 -1 -0 -0 -1 -1 -1 -0 -0 -0 -0 0 0 0 1 1 1 1 1 1 1 1 1 1 1 1 2 2 2
2 1 -0 -2 -2 -3 -3 -2 -2 -2 -2 -2 -2 -2 -1 -1 -1 -1 -1 -1 -1 -1 -1 -1 -0 -0 0 0 1 1 2 2 2 2 2 2 1 1 1 1 2 2 2
4 3 2 1 -0 -1 -2 -2 -1 -1 -1 -1 -0 -0 -0 -0 -1 -1 -1 -1 -1 -1 -1 -1 -0 -0 0 0 1 1 2 3 3 2 2 2 2 2 2 2 2 2 2
4 4 4 4 3 2 1 1 1 2 2 3 4 4 4 3 3 3 3 2 2 1 1 1 1 1 1 1 1 1 2 3 3 3 3 2 2 2 2 2 2 2 2
4 4 4 5 5 4 4 4 5 6 6 7 8 8 8 8 7 7 7 6 5 4 4 3 3 2 2 1 1 1 2 2 2 3 3 3 3 3 3 3 3 3 3
5 5 5 5 5 5 6 6 7 8 8 9 9 10 10 10 9 9 8 8 7 6 5 5 4 3 2 1 1 1 2 2 2 2 3 3 3 4 4 4 4 4 4